Weather in Shenzhen

China     22°32′46″N   114°03′16″E
temp.,
°C
wind,
m/s
gust,
m/s
humid.,
%
clouds,
%
prec.,
mm/h
press.,
hPa
HPBL,
m
12 august, fri
fri1223:00+27ese478157 0.0 1010679
02:00+27se3483100 0.1 1008335
05:00+26ese238558 0.3 1008187
08:00+27ese238134 2.8 1009465
11:00+27se2382100 4.6 1009250
14:00+29s447283 6.6 1008853
17:00+27sw4482100 0.6 1008446
20:00+27se118295 0.7 1008198
13 august, sat
sat1323:00+27se128268 0.0 1009163
02:00+26e238499 0.0 1007177
05:00+26e018412 0.0 1008116
08:00+28ene01785 0.0 1009287
11:00+30sw226917 0.0 1009760
14:00+30ssw436992 0.7 1007791
17:00+30ssw4368100 0.1 1006541
20:00+29s34775 0.1 1007404
14 august, sun
sun1423:00+28sse34815 0.0 1008374
02:00+28sse238283 0.0 1007375
05:00+27se128414 0.0 1007180
08:00+28sse22807 0.3 1008376
11:00+30ssw336916 0.3 1008876
14:00+30ssw547022 0.3 1007773
17:00+30s44729 0.5 1006703
20:00+29sse45795 0.5 1007431
15 august, mon
mon1523:00+28sse35828 0.0 1008484
02:00+28s348411 0.1 1007431
05:00+27sse24867 1.5 1006267
08:00+28s237919 2.7 1008591
11:00+30ssw437111 0.1 1008929
14:00+31ssw44669 0.1 1006839
17:00+30s446810 0.0 1005692
20:00+29s45770 0.0 1006497
16 august, tue
tue1623:00+28s45805 0.0 1008568
02:00+28s348114 0.0 1007504
05:00+27ssw23822 0.5 1006274
08:00+28s22774 0.7 1007594
11:00+30ssw32655 0.0 1008896
14:00+31ssw436323 0.0 1006826
17:00+30s54671 0.0 1005693
20:00+29s45750 0.0 1006488